Weather History for London-Corbin, KY

Change the Weather History Date:

Wednesday, May 7, 2014

  Actual Average Record
Temperature  
Mean Temperature 71 °F 62 °F  
Max Temperature 88 °F 74 °F 88 °F (2014)
Min Temperature 54 °F 51 °F 34 °F (1989)
Degree Days  
Heating Degree Days 0 4  
Month to date heating degree days 29 32  
Since 1 July heating degree days 4366 4133  
Cooling Degree Days 6 2  
Month to date cooling degree days 16 9  
Year to date cooling degree days 41 35  
Growing Degree Days 21 (Base 50)    
Moisture  
Dew Point 53 °F    
Average Humidity 59    
Maximum Humidity 93    
Minimum Humidity 24    
Precipitation  
Precipitation 0.00 in 0.17 in 4.08 in (1984)
Month to date precipitation T 1.11  
Year to date precipitation 16.76 16.46  
Sea Level Pressure  
Sea Level Pressure 30.00 in    
Wind  
Wind Speed 5 mph (SW)    
Max Wind Speed 16 mph    
Max Gust Speed 21 mph    
Visibility 10 miles    
Events      
T = Trace of Precipitation, MM = Missing Value Source: NWS Daily Summary

Daily Weather History Graph

Daily Weather History Graph

Search for Another Location

Airport:

Trip Planner

Search our weather history database for the weather conditions in past years. The results will help you decide how hot, cold, wet, or windy it might be!

Date:

Astronomy

May. 07, 2014 Rise Set
Actual Time 6:35 AM EDT 8:30 PM EDT
Civil Twilight 6:07 AM EDT 8:59 PM EDT
Nautical Twilight 5:32 AM EDT 9:33 PM EDT
Astronomical Twilight 4:55 AM EDT 10:11 PM EDT
Moon 1:44 PM EDT (5/7) 2:24 AM EDT (5/7)
Length of Visible Light 14h 52m
Length of Day
13h 55m
First Quarter, 55% of the Moon is Illuminated
May 7
First Quarter
May 14
Full
May 21
Last Quarter
May 28
New
Jun 5
First Quarter

Hourly Weather History & Observations

Time (EDT) Temp. Dew Point Humidity Pressure Visibility Wind Dir Wind Speed Gust Speed Precip Events Conditions
12:53 AM 60.1 °F 54.0 °F 80% 29.94 in 10.0 mi Calm Calm - N/A   Clear
1:53 AM 57.9 °F 54.0 °F 87% 29.94 in 10.0 mi Calm Calm - N/A   Clear
2:53 AM 57.0 °F 53.1 °F 87% 29.94 in 10.0 mi Calm Calm - N/A   Clear
3:53 AM 55.9 °F 53.1 °F 90% 29.96 in 10.0 mi Calm Calm - N/A   Clear
5:53 AM 55.9 °F 51.1 °F 84% 29.98 in 10.0 mi Calm Calm - N/A   Clear
6:53 AM 55.0 °F 50.0 °F 83% 30.00 in 10.0 mi Calm Calm - N/A   Clear
7:53 AM 61.0 °F 54.0 °F 78% 30.03 in 10.0 mi Calm Calm - N/A   Clear
8:53 AM 66.9 °F 55.0 °F 66% 30.05 in 10.0 mi SSW 3.5 mph - N/A   Clear
9:53 AM 73.0 °F 55.0 °F 53% 30.06 in 10.0 mi SSW 8.1 mph - N/A   Clear
10:53 AM 75.9 °F 54.0 °F 46% 30.06 in 10.0 mi WSW 8.1 mph 17.3 mph N/A   Clear
11:53 AM 79.0 °F 53.1 °F 40% 30.06 in 10.0 mi SW 10.4 mph 18.4 mph N/A   Clear
2:53 PM 84.0 °F 52.0 °F 33% 30.01 in 10.0 mi SSW 13.8 mph 19.6 mph N/A   Clear
3:53 PM 86.0 °F 51.1 °F 30% 30.00 in 10.0 mi SW 9.2 mph - N/A   Clear
4:53 PM 87.1 °F 46.0 °F 24% 29.98 in 10.0 mi WSW 12.7 mph 19.6 mph N/A   Clear
5:53 PM 86.0 °F 51.1 °F 30% 29.98 in 10.0 mi SSW 9.2 mph - N/A   Clear
6:53 PM 84.0 °F 52.0 °F 33% 29.99 in 10.0 mi SSW 5.8 mph - N/A   Clear
7:53 PM 82.9 °F 52.0 °F 34% 29.98 in 10.0 mi SSW 5.8 mph - N/A   Clear
8:53 PM 78.1 °F 54.0 °F 43% 29.99 in 10.0 mi Calm Calm - N/A   Clear
9:53 PM 72.0 °F 55.0 °F 55% 30.01 in 10.0 mi Calm Calm - N/A   Clear
10:53 PM 69.1 °F 55.0 °F 61% 30.02 in 10.0 mi Calm Calm - N/A   Clear
11:53 PM 71.1 °F 53.1 °F 53% 30.02 in 10.0 mi SW 4.6 mph - N/A   Clear